COSMOS 2499 DEB, 56578

Orbit data source: Space-Track

COSMOS 2499 DEB, 56578 is space debris in LEO originally from a launch on Fri, 23 May 2014 UTC launched from the Plesetsk Missile And Space Complex (PKMTR). Debris objects in space refer to the collection of defunct objects orbiting the Earth. Examples of debris include non-operational satellites, rocket bodies, and fragments generated from explosions, collisions, or faulty payload assembly.

Loading next visibility...
Identifier
56578, 2014-028BM
Orbit
LEO
Country
Flag of CISCIS
Related business
Manufacturer
TsNIIKhM
Mission
Spacecraft
Bus & Motor
Unknown
Mass
Unknown
Launch date (UTC)
2014-05-23 (12 years ago)
Launch vehicle
Unknown
Launch site
Plesetsk Missile And Space Complex (PKMTR)
Object type
Payload
Rocket body
Debris
Shape & HBR
Unknown shape, 0.1 m
Radar Cross Section
Small (<0.1 m²)

Expand to show TLE details & history
Last TLE update: 23 hours ago

TLE from 23 hours ago
0 COSMOS 2499 DEB
1 56578U 14028BM  25349.62899064  .00002148  00000-0  40360-2 0  9993
2 56578  82.2114 302.8124 0245750 237.9056 119.8003 13.27475035139402
Epoch: 2025-12-15T15:05Z
TLE epoch observation values (Epoch: 2025-12-15T15:05:44.791Z)
Latitude
-0.00009°
Longitude
-8.14906°
Altitude
1,254.516 km
Speed
7.182 km/s
True Right ascension
20h 11m 14s
True Declination
0° 00' 00"
Sunlit
Object was in daylight at epoch
Visualization orbit readout
Latitude
Unknown
Longitude
Unknown
Altitude
Unknown
Speed
Unknown
Apparent Right ascension
Unknown
Apparent Declination
Unknown
Sunlit
N/A
Visualization observer readout
Local Sidereal Time
12:48:44
Azimuth
Unknown
Elevation
Unknown
Doppler factor
Unknown
Orbital elements
Apogee altitude
1,338.634 km
Perigee altitude
968.452 km
Semi-major axis
7,531.68 km
Eccentricity
0.02458
Inclination
82.2114°
RAAN
302.8124°
Arg. of periapsis
237.9056°
True anomaly
122.20652°
Mean anomaly
119.8003°
Eccentric anomaly
121.00714°
Mean motion
3.32051 °/min
Orbital period
108.42 mins
BSTAR
0.004036
Loading maneuver chart data...
Computing Atmospheric mass density...
Loading historical data...
Loading historical data...
Loading historical data...
Loading historical data...
Loading historical data...
Loading historical data...
Loading historical data...

Documentation

Showing up to 5 results
|